Time,TemperatureF,DewpointF,PressureIn,WindDirection,WindDirectionDegrees,WindSpeedMPH,WindSpeedGustMPH,Humidity,HourlyPrecipIn,Conditions,Clouds,dailyrainin,SoftwareType,DateUTC
2013-08-09 00:02:00,71.6,71.6,30.36,North,0,0.0,-999.9,100,-99.99,,,-99.99,,2013-08-09 04:02:00,
2013-08-09 00:04:00,71.6,71.6,30.36,North,0,0.0,-999.9,100,-99.99,,,-99.99,,2013-08-09 04:04:00,
2013-08-09 00:06:00,71.6,71.6,30.36,North,0,0.0,-999.9,100,-99.99,,,-99.99,,2013-08-09 04:06:00,
2013-08-09 00:10:00,71.6,71.6,30.36,North,0,0.0,-999.9,100,-99.99,,,-99.99,,2013-08-09 04:10:00,
2013-08-09 00:14:00,71.6,71.6,30.36,North,0,0.0,-999.9,100,-99.99,,,-99.99,,2013-08-09 04:14:00,
2013-08-09 00:20:00,71.6,71.6,30.36,North,0,0.0,-999.9,100,-99.99,,,-99.99,,2013-08-09 04:20:00,
2013-08-09 00:26:00,71.6,71.6,30.35,North,0,0.0,-999.9,100,-99.99,,,-99.99,,2013-08-09 04:26:00,
2013-08-09 00:32:00,71.6,71.6,30.35,North,0,0.0,-999.9,100,-99.99,,,-99.99,,2013-08-09 04:32:00,
2013-08-09 00:38:00,71.6,71.6,30.35,North,0,0.0,-999.9,100,-99.99,,,-99.99,,2013-08-09 04:38:00,
2013-08-09 00:44:00,71.6,71.6,30.35,North,0,0.0,-999.9,100,-99.99,,,-99.99,,2013-08-09 04:44:00,
2013-08-09 00:50:00,71.6,71.6,30.35,North,0,0.0,-999.9,100,-99.99,,,-99.99,,2013-08-09 04:50:00,
2013-08-09 00:56:00,71.6,71.6,30.35,North,0,0.0,-999.9,100,-99.99,,,-99.99,,2013-08-09 04:56:00,
2013-08-09 01:42:00,71.6,71.6,30.34,North,0,0.0,-999.9,100,-99.99,,,-99.99,,2013-08-09 05:42:00,
2013-08-09 01:48:00,71.6,71.6,30.34,North,0,0.0,-999.9,100,-99.99,,,-99.99,,2013-08-09 05:48:00,
2013-08-09 02:02:00,71.6,71.6,30.33,North,0,0.0,-999.9,100,-99.99,,,-99.99,,2013-08-09 06:02:00,
2013-08-09 02:08:00,71.6,71.6,30.33,North,0,0.0,-999.9,100,-99.99,,,-99.99,,2013-08-09 06:08:00,
2013-08-09 02:14:00,71.6,71.6,30.32,North,0,0.0,-999.9,100,-99.99,,,-99.99,,2013-08-09 06:14:00,
2013-08-09 02:20:00,71.6,71.6,30.32,North,0,0.0,-999.9,100,-99.99,,,-99.99,,2013-08-09 06:20:00,
2013-08-09 02:26:00,71.6,71.6,30.32,SSE,163,2.3,-999.9,100,-99.99,,,-99.99,,2013-08-09 06:26:00,
2013-08-09 02:32:00,71.6,71.6,30.32,North,0,0.0,-999.9,100,-99.99,,,-99.99,,2013-08-09 06:32:00,
2013-08-09 02:38:00,71.6,71.6,30.32,North,0,0.0,-999.9,100,-99.99,,,-99.99,,2013-08-09 06:38:00,
2013-08-09 02:44:00,71.6,71.6,30.32,North,0,0.0,-999.9,100,-99.99,,,-99.99,,2013-08-09 06:44:00,
2013-08-09 02:50:00,71.6,71.6,30.32,North,0,0.0,-999.9,100,-99.99,,,-99.99,,2013-08-09 06:50:00,
2013-08-09 02:56:00,71.6,71.6,30.32,North,0,0.0,-999.9,100,-99.99,,,-99.99,,2013-08-09 06:56:00,
2013-08-09 03:02:00,71.6,71.6,30.32,North,0,0.0,-999.9,100,-99.99,,,-99.99,,2013-08-09 07:02:00,
2013-08-09 03:08:00,71.6,71.6,30.32,North,0,0.0,-999.9,100,-99.99,,,-99.99,,2013-08-09 07:08:00,
2013-08-09 03:14:00,71.6,71.6,30.31,SSE,158,0.0,-999.9,100,-99.99,,,-99.99,,2013-08-09 07:14:00,
2013-08-09 03:20:00,71.6,71.6,30.31,SSE,158,0.0,-999.9,100,-99.99,,,-99.99,,2013-08-09 07:20:00,
2013-08-09 03:26:00,71.6,71.6,30.31,SSE,167,0.0,-999.9,100,-99.99,,,-99.99,,2013-08-09 07:26:00,
2013-08-09 03:32:00,71.6,71.6,30.30,South,184,1.2,-999.9,100,-99.99,,,-99.99,,2013-08-09 07:32:00,
2013-08-09 03:38:00,71.6,71.6,30.30,South,184,1.2,-999.9,100,-99.99,,,-99.99,,2013-08-09 07:38:00,
2013-08-09 03:44:00,71.6,71.6,30.30,North,0,0.0,-999.9,100,-99.99,,,-99.99,,2013-08-09 07:44:00,
2013-08-09 03:50:00,71.6,71.6,30.30,North,0,0.0,-999.9,100,-99.99,,,-99.99,,2013-08-09 07:50:00,
2013-08-09 03:56:00,71.6,71.6,30.29,South,181,1.2,-999.9,100,-99.99,,,-99.99,,2013-08-09 07:56:00,
2013-08-09 04:02:00,71.6,71.6,30.30,North,0,0.0,-999.9,100,-99.99,,,-99.99,,2013-08-09 08:02:00,
2013-08-09 04:08:00,71.6,71.6,30.30,North,0,0.0,-999.9,100,-99.99,,,-99.99,,2013-08-09 08:08:00,
2013-08-09 04:14:00,71.6,71.6,30.30,North,0,0.0,-999.9,100,-99.99,,,-99.99,,2013-08-09 08:14:00,
2013-08-09 04:20:00,71.6,71.6,30.30,North,0,0.0,-999.9,100,-99.99,,,-99.99,,2013-08-09 08:20:00,
2013-08-09 04:26:00,73.4,71.6,30.30,South,172,0.0,-999.9,94,-99.99,,,-99.99,,2013-08-09 08:26:00,
2013-08-09 04:32:00,73.4,71.6,30.29,South,170,0.0,-999.9,94,-99.99,,,-99.99,,2013-08-09 08:32:00,
2013-08-09 04:38:00,73.4,71.6,30.29,South,170,0.0,-999.9,94,-99.99,,,-99.99,,2013-08-09 08:38:00,
2013-08-09 04:44:00,73.4,71.6,30.29,North,0,0.0,-999.9,94,-99.99,,,-99.99,,2013-08-09 08:44:00,
2013-08-09 04:50:00,73.4,71.6,30.29,North,0,0.0,-999.9,94,-99.99,,,-99.99,,2013-08-09 08:50:00,
2013-08-09 04:56:00,73.4,71.6,30.29,North,0,0.0,-999.9,94,-99.99,,,-99.99,,2013-08-09 08:56:00,
2013-08-09 05:02:00,73.4,73.4,30.28,North,0,0.0,-999.9,100,-99.99,,,-99.99,,2013-08-09 09:02:00,
2013-08-09 05:08:00,73.4,73.4,30.28,North,0,0.0,-999.9,100,-99.99,,,-99.99,,2013-08-09 09:08:00,
2013-08-09 05:14:00,73.4,73.4,30.28,North,0,0.0,-999.9,100,-99.99,,,-99.99,,2013-08-09 09:14:00,
2013-08-09 05:20:00,73.4,73.4,30.28,North,0,0.0,-999.9,100,-99.99,,,-99.99,,2013-08-09 09:20:00,
2013-08-09 05:26:00,73.4,73.4,30.28,North,0,0.0,-999.9,100,-99.99,,,-99.99,,2013-08-09 09:26:00,
2013-08-09 05:32:00,73.4,73.4,30.28,SSE,162,0.0,-999.9,100,-99.99,,,-99.99,,2013-08-09 09:32:00,
2013-08-09 05:38:00,73.4,73.4,30.28,SSE,162,0.0,-999.9,100,-99.99,,,-99.99,,2013-08-09 09:38:00,
2013-08-09 05:44:00,73.4,73.4,30.28,SSE,152,1.2,-999.9,100,-99.99,,,-99.99,,2013-08-09 09:44:00,
2013-08-09 05:50:00,73.4,73.4,30.28,SSE,152,1.2,-999.9,100,-99.99,,,-99.99,,2013-08-09 09:50:00,
2013-08-09 05:56:00,73.4,73.4,30.27,SSE,166,2.3,-999.9,100,-99.99,,,-99.99,,2013-08-09 09:56:00,
2013-08-09 06:02:00,73.4,73.4,30.28,SSE,164,0.0,-999.9,100,-99.99,,,-99.99,,2013-08-09 10:02:00,
2013-08-09 06:08:00,73.4,73.4,30.28,SSE,164,0.0,-999.9,100,-99.99,,,-99.99,,2013-08-09 10:08:00,
2013-08-09 06:14:00,73.4,73.4,30.28,SSE,164,0.0,-999.9,100,-99.99,,,-99.99,,2013-08-09 10:14:00,
2013-08-09 06:20:00,73.4,73.4,30.28,SSE,164,0.0,-999.9,100,-99.99,,,-99.99,,2013-08-09 10:20:00,
2013-08-09 06:26:00,73.4,73.4,30.27,South,169,1.2,-999.9,100,-99.99,,,-99.99,,2013-08-09 10:26:00,
2013-08-09 06:32:00,73.4,73.4,30.27,South,179,1.2,-999.9,100,-99.99,,,-99.99,,2013-08-09 10:32:00,
2013-08-09 06:38:00,73.4,73.4,30.27,South,179,1.2,-999.9,100,-99.99,,,-99.99,,2013-08-09 10:38:00,
2013-08-09 06:44:00,73.4,73.4,30.26,South,183,2.3,-999.9,100,-99.99,,,-99.99,,2013-08-09 10:44:00,
2013-08-09 06:50:00,73.4,73.4,30.26,South,183,2.3,-999.9,100,-99.99,,,-99.99,,2013-08-09 10:50:00,
2013-08-09 06:56:00,73.4,73.4,30.26,South,175,3.5,-999.9,100,-99.99,,,-99.99,,2013-08-09 10:56:00,
2013-08-09 07:02:00,73.4,73.4,30.26,South,180,1.2,-999.9,100,-99.99,,,-99.99,,2013-08-09 11:02:00,
2013-08-09 07:08:00,73.4,73.4,30.26,South,180,1.2,-999.9,100,-99.99,,,-99.99,,2013-08-09 11:08:00,
2013-08-09 07:14:00,73.4,73.4,30.26,South,176,3.5,-999.9,100,-99.99,,,-99.99,,2013-08-09 11:14:00,
2013-08-09 07:20:00,73.4,73.4,30.26,South,176,3.5,-999.9,100,-99.99,,,-99.99,,2013-08-09 11:20:00,
2013-08-09 07:26:00,73.4,73.4,30.26,South,181,0.0,-999.9,100,-99.99,,,-99.99,,2013-08-09 11:26:00,
2013-08-09 07:32:00,73.4,73.4,30.25,South,171,2.3,-999.9,100,-99.99,,,-99.99,,2013-08-09 11:32:00,
2013-08-09 07:38:00,73.4,73.4,30.25,South,171,2.3,-999.9,100,-99.99,,,-99.99,,2013-08-09 11:38:00,
2013-08-09 07:44:00,73.4,73.4,30.25,SSE,168,2.3,-999.9,100,-99.99,,,-99.99,,2013-08-09 11:44:00,
2013-08-09 07:50:00,73.4,73.4,30.25,SSE,168,2.3,-999.9,100,-99.99,,,-99.99,,2013-08-09 11:50:00,
2013-08-09 07:56:00,73.4,73.4,30.25,SSE,164,3.5,-999.9,100,-99.99,,,-99.99,,2013-08-09 11:56:00,
2013-08-09 08:02:00,73.4,73.4,30.25,South,171,4.6,-999.9,100,-99.99,,,-99.99,,2013-08-09 12:02:00,
2013-08-09 08:08:00,73.4,73.4,30.25,South,171,4.6,-999.9,100,-99.99,,,-99.99,,2013-08-09 12:08:00,
2013-08-09 08:14:00,73.4,73.4,30.24,South,170,5.8,-999.9,100,-99.99,,,-99.99,,2013-08-09 12:14:00,
2013-08-09 08:20:00,73.4,73.4,30.24,South,170,5.8,-999.9,100,-99.99,,,-99.99,,2013-08-09 12:20:00,
2013-08-09 08:26:00,73.4,73.4,30.24,SSE,155,3.5,-999.9,100,-99.99,,,-99.99,,2013-08-09 12:26:00,
2013-08-09 08:32:00,75.2,73.4,30.23,South,173,3.5,-999.9,94,-99.99,,,-99.99,,2013-08-09 12:32:00,
2013-08-09 08:38:00,75.2,73.4,30.23,South,173,3.5,-999.9,94,-99.99,,,-99.99,,2013-08-09 12:38:00,
2013-08-09 08:44:00,75.2,73.4,30.23,SSE,167,3.5,-999.9,94,-99.99,,,-99.99,,2013-08-09 12:44:00,
2013-08-09 08:50:00,75.2,73.4,30.23,SSE,167,3.5,-999.9,94,-99.99,,,-99.99,,2013-08-09 12:50:00,
2013-08-09 08:56:00,75.2,73.4,30.22,SSE,167,4.6,-999.9,94,-99.99,,,-99.99,,2013-08-09 12:56:00,
2013-08-09 09:02:00,75.2,73.4,30.22,South,170,1.2,-999.9,94,-99.99,,,-99.99,,2013-08-09 13:02:00,
2013-08-09 09:08:00,75.2,73.4,30.22,South,170,1.2,-999.9,94,-99.99,,,-99.99,,2013-08-09 13:08:00,
2013-08-09 09:14:00,75.2,73.4,30.21,SSE,160,3.5,-999.9,94,-99.99,,,-99.99,,2013-08-09 13:14:00,
2013-08-09 09:20:00,75.2,73.4,30.21,SSE,160,3.5,-999.9,94,-99.99,,,-99.99,,2013-08-09 13:20:00,
2013-08-09 09:26:00,75.2,73.4,30.22,South,185,1.2,-999.9,94,-99.99,,,-99.99,,2013-08-09 13:26:00,
2013-08-09 09:32:00,75.2,73.4,30.21,South,169,0.0,-999.9,94,-99.99,,,-99.99,,2013-08-09 13:32:00,
2013-08-09 09:38:00,75.2,73.4,30.21,South,169,0.0,-999.9,94,-99.99,,,-99.99,,2013-08-09 13:38:00,
2013-08-09 09:44:00,75.2,73.4,30.21,SSE,152,2.3,-999.9,94,-99.99,,,-99.99,,2013-08-09 13:44:00,
2013-08-09 09:50:00,75.2,73.4,30.21,SSE,152,2.3,-999.9,94,-99.99,,,-99.99,,2013-08-09 13:50:00,
2013-08-09 09:56:00,75.2,73.4,30.20,South,175,2.3,-999.9,94,-99.99,,,-99.99,,2013-08-09 13:56:00,
2013-08-09 10:02:00,75.2,73.4,30.20,SSE,148,1.2,-999.9,94,-99.99,,,-99.99,,2013-08-09 14:02:00,
2013-08-09 10:08:00,75.2,73.4,30.20,SSE,148,1.2,-999.9,94,-99.99,,,-99.99,,2013-08-09 14:08:00,
2013-08-09 10:14:00,75.2,73.4,30.20,South,170,1.2,-999.9,94,-99.99,,,-99.99,,2013-08-09 14:14:00,
2013-08-09 10:20:00,75.2,73.4,30.20,South,170,1.2,-999.9,94,-99.99,,,-99.99,,2013-08-09 14:20:00,
2013-08-09 10:26:00,75.2,73.4,30.20,South,177,1.2,-999.9,94,-99.99,,,-99.99,,2013-08-09 14:26:00,
2013-08-09 10:32:00,75.2,73.4,30.20,SSE,156,2.3,-999.9,94,-99.99,,,-99.99,,2013-08-09 14:32:00,
2013-08-09 10:38:00,75.2,73.4,30.20,SSE,156,2.3,-999.9,94,-99.99,,,-99.99,,2013-08-09 14:38:00,
2013-08-09 10:44:00,75.2,73.4,30.20,South,170,1.2,-999.9,94,-99.99,,,-99.99,,2013-08-09 14:44:00,
2013-08-09 10:50:00,75.2,73.4,30.20,South,170,1.2,-999.9,94,-99.99,,,-99.99,,2013-08-09 14:50:00,
2013-08-09 10:56:00,75.2,73.4,30.19,SSE,154,4.6,-999.9,94,-99.99,,,-99.99,,2013-08-09 14:56:00,
2013-08-09 11:02:00,75.2,73.4,30.19,SSE,155,2.3,-999.9,94,-99.99,,,-99.99,,2013-08-09 15:02:00,
2013-08-09 11:08:00,75.2,73.4,30.19,SSE,155,2.3,-999.9,94,-99.99,,,-99.99,,2013-08-09 15:08:00,
2013-08-09 11:14:00,77.0,75.2,30.18,SSE,163,4.6,-999.9,94,-99.99,,,-99.99,,2013-08-09 15:14:00,
2013-08-09 11:20:00,77.0,75.2,30.18,SSE,163,4.6,-999.9,94,-99.99,,,-99.99,,2013-08-09 15:20:00,
2013-08-09 11:26:00,77.0,75.2,30.18,SSE,153,3.5,-999.9,94,-99.99,,,-99.99,,2013-08-09 15:26:00,
2013-08-09 11:32:00,77.0,75.2,30.18,SSE,164,4.6,-999.9,94,-99.99,,,-99.99,,2013-08-09 15:32:00,
2013-08-09 11:38:00,77.0,75.2,30.18,SSE,164,4.6,-999.9,94,-99.99,,,-99.99,,2013-08-09 15:38:00,
2013-08-09 11:44:00,77.0,75.2,30.17,SSE,155,1.2,-999.9,94,-99.99,,,-99.99,,2013-08-09 15:44:00,
2013-08-09 11:50:00,77.0,75.2,30.17,SSE,155,1.2,-999.9,94,-99.99,,,-99.99,,2013-08-09 15:50:00,
2013-08-09 11:56:00,77.0,75.2,30.17,SE,141,5.8,-999.9,94,-99.99,,,-99.99,,2013-08-09 15:56:00,
2013-08-09 12:02:00,78.8,77.0,30.17,SE,129,0.0,-999.9,94,-99.99,,,-99.99,,2013-08-09 16:02:00,
2013-08-09 12:08:00,78.8,77.0,30.17,SE,129,0.0,-999.9,94,-99.99,,,-99.99,,2013-08-09 16:08:00,
2013-08-09 12:14:00,78.8,75.2,30.17,SE,144,2.3,-999.9,89,-99.99,,,-99.99,,2013-08-09 16:14:00,
2013-08-09 12:20:00,78.8,75.2,30.17,SE,144,2.3,-999.9,89,-99.99,,,-99.99,,2013-08-09 16:20:00,
2013-08-09 12:26:00,78.8,73.4,30.17,SSE,157,5.8,-999.9,83,-99.99,,,-99.99,,2013-08-09 16:26:00,
2013-08-09 12:32:00,80.6,75.2,30.16,South,181,2.3,-999.9,84,-99.99,,,-99.99,,2013-08-09 16:32:00,
2013-08-09 12:38:00,80.6,75.2,30.16,South,181,2.3,-999.9,84,-99.99,,,-99.99,,2013-08-09 16:38:00,
2013-08-09 12:44:00,80.6,73.4,30.16,ENE,66,1.2,-999.9,79,-99.99,,,-99.99,,2013-08-09 16:44:00,
2013-08-09 12:50:00,80.6,73.4,30.16,ENE,66,1.2,-999.9,79,-99.99,,,-99.99,,2013-08-09 16:50:00,
2013-08-09 12:56:00,80.6,73.4,30.16,SE,130,5.8,-999.9,79,-99.99,,,-99.99,,2013-08-09 16:56:00,
2013-08-09 13:02:00,80.6,73.4,30.16,SE,136,2.3,-999.9,79,-99.99,,,-99.99,,2013-08-09 17:02:00,
2013-08-09 13:08:00,80.6,73.4,30.16,SE,136,2.3,-999.9,79,-99.99,,,-99.99,,2013-08-09 17:08:00,
2013-08-09 13:14:00,82.4,73.4,30.16,SE,132,5.8,-999.9,74,-99.99,,,-99.99,,2013-08-09 17:14:00,
2013-08-09 13:20:00,82.4,73.4,30.16,SE,132,5.8,-999.9,74,-99.99,,,-99.99,,2013-08-09 17:20:00,
2013-08-09 13:26:00,82.4,73.4,30.16,SE,132,5.8,-999.9,74,-99.99,,,-99.99,,2013-08-09 17:26:00,
2013-08-09 13:32:00,82.4,71.6,30.15,SSE,151,6.9,-999.9,70,-99.99,,,-99.99,,2013-08-09 17:32:00,
2013-08-09 13:38:00,82.4,71.6,30.15,SSE,151,6.9,-999.9,70,-99.99,,,-99.99,,2013-08-09 17:38:00,
2013-08-09 13:44:00,84.2,73.4,30.15,North,0,0.0,-999.9,70,-99.99,,,-99.99,,2013-08-09 17:44:00,
2013-08-09 13:50:00,84.2,73.4,30.15,North,0,0.0,-999.9,70,-99.99,,,-99.99,,2013-08-09 17:50:00,
2013-08-09 13:56:00,84.2,73.4,30.15,SSE,150,1.2,-999.9,70,-99.99,,,-99.99,,2013-08-09 17:56:00,
2013-08-09 14:02:00,84.2,73.4,30.14,SSE,157,2.3,-999.9,70,-99.99,,,-99.99,,2013-08-09 18:02:00,
2013-08-09 14:08:00,84.2,73.4,30.14,SSE,157,2.3,-999.9,70,-99.99,,,-99.99,,2013-08-09 18:08:00,
2013-08-09 14:14:00,84.2,71.6,30.14,SSE,152,8.1,-999.9,66,-99.99,,,-99.99,,2013-08-09 18:14:00,
2013-08-09 14:20:00,84.2,71.6,30.14,SSE,152,8.1,-999.9,66,-99.99,,,-99.99,,2013-08-09 18:20:00,
2013-08-09 14:26:00,86.0,73.4,30.14,East,86,3.5,-999.9,66,-99.99,,,-99.99,,2013-08-09 18:26:00,
2013-08-09 14:32:00,86.0,71.6,30.14,SE,140,5.8,-999.9,62,-99.99,,,-99.99,,2013-08-09 18:32:00,
2013-08-09 14:38:00,86.0,71.6,30.14,SE,140,5.8,-999.9,62,-99.99,,,-99.99,,2013-08-09 18:38:00,
2013-08-09 14:44:00,86.0,71.6,30.14,SE,143,4.6,-999.9,62,-99.99,,,-99.99,,2013-08-09 18:44:00,
2013-08-09 14:50:00,86.0,71.6,30.14,SE,143,4.6,-999.9,62,-99.99,,,-99.99,,2013-08-09 18:50:00,
2013-08-09 14:56:00,86.0,71.6,30.14,ESE,112,4.6,-999.9,62,-99.99,,,-99.99,,2013-08-09 18:56:00,
2013-08-09 15:02:00,87.8,73.4,30.13,South,191,2.3,-999.9,62,-99.99,,,-99.99,,2013-08-09 19:02:00,
2013-08-09 15:08:00,87.8,73.4,30.13,South,191,2.3,-999.9,62,-99.99,,,-99.99,,2013-08-09 19:08:00,
2013-08-09 15:14:00,87.8,71.6,30.13,SE,144,4.6,-999.9,58,-99.99,,,-99.99,,2013-08-09 19:14:00,
2013-08-09 15:20:00,87.8,71.6,30.13,SE,144,4.6,-999.9,58,-99.99,,,-99.99,,2013-08-09 19:20:00,
2013-08-09 15:26:00,87.8,71.6,30.13,SE,145,10.4,-999.9,58,-99.99,,,-99.99,,2013-08-09 19:26:00,
2013-08-09 15:32:00,87.8,73.4,30.12,SW,229,1.2,-999.9,62,-99.99,,,-99.99,,2013-08-09 19:32:00,
2013-08-09 15:38:00,87.8,73.4,30.12,SW,229,1.2,-999.9,62,-99.99,,,-99.99,,2013-08-09 19:38:00,
2013-08-09 15:44:00,87.8,73.4,30.12,South,169,1.2,-999.9,62,-99.99,,,-99.99,,2013-08-09 19:44:00,
2013-08-09 15:50:00,87.8,73.4,30.12,South,169,1.2,-999.9,62,-99.99,,,-99.99,,2013-08-09 19:50:00,
2013-08-09 15:56:00,87.8,73.4,30.12,SE,142,3.5,-999.9,62,-99.99,,,-99.99,,2013-08-09 19:56:00,
2013-08-09 16:02:00,86.0,71.6,30.12,SSE,168,3.5,-999.9,62,-99.99,,,-99.99,,2013-08-09 20:02:00,
2013-08-09 16:08:00,86.0,71.6,30.12,SSE,168,3.5,-999.9,62,-99.99,,,-99.99,,2013-08-09 20:08:00,
2013-08-09 16:14:00,86.0,71.6,30.12,NNE,13,2.3,-999.9,62,-99.99,,,-99.99,,2013-08-09 20:14:00,
2013-08-09 16:20:00,86.0,71.6,30.12,NNE,13,2.3,-999.9,62,-99.99,,,-99.99,,2013-08-09 20:20:00,
2013-08-09 16:26:00,86.0,71.6,30.12,NNE,13,2.3,-999.9,62,-99.99,,,-99.99,,2013-08-09 20:26:00,
2013-08-09 16:32:00,86.0,73.4,30.12,North,0,0.0,-999.9,66,-99.99,,,-99.99,,2013-08-09 20:32:00,
2013-08-09 16:38:00,86.0,73.4,30.12,North,0,0.0,-999.9,66,-99.99,,,-99.99,,2013-08-09 20:38:00,
2013-08-09 16:44:00,86.0,73.4,30.12,North,0,0.0,-999.9,66,-99.99,,,-99.99,,2013-08-09 20:44:00,
2013-08-09 16:50:00,86.0,73.4,30.12,North,0,0.0,-999.9,66,-99.99,,,-99.99,,2013-08-09 20:50:00,
2013-08-09 16:56:00,84.2,73.4,30.12,SSE,163,3.5,-999.9,70,-99.99,,,-99.99,,2013-08-09 20:56:00,
2013-08-09 17:02:00,84.2,73.4,30.13,SSE,155,9.2,-999.9,70,-99.99,,,-99.99,,2013-08-09 21:02:00,
2013-08-09 17:08:00,84.2,73.4,30.13,SSE,155,9.2,-999.9,70,-99.99,,,-99.99,,2013-08-09 21:08:00,
2013-08-09 17:14:00,82.4,73.4,30.14,SE,145,6.9,-999.9,74,-99.99,,,-99.99,,2013-08-09 21:14:00,
2013-08-09 17:20:00,82.4,73.4,30.14,SE,143,4.6,-999.9,74,-99.99,,,-99.99,,2013-08-09 21:20:00,
2013-08-09 17:26:00,82.4,73.4,30.14,SE,143,4.6,-999.9,74,-99.99,,,-99.99,,2013-08-09 21:26:00,
2013-08-09 17:32:00,82.4,73.4,30.14,SE,141,8.1,-999.9,74,-99.99,,,-99.99,,2013-08-09 21:32:00,
2013-08-09 17:38:00,82.4,73.4,30.14,SE,141,8.1,-999.9,74,-99.99,,,-99.99,,2013-08-09 21:38:00,
2013-08-09 17:44:00,82.4,75.2,30.14,SSE,151,5.8,-999.9,79,-99.99,,,-99.99,,2013-08-09 21:44:00,
2013-08-09 17:50:00,82.4,75.2,30.14,SSE,151,5.8,-999.9,79,-99.99,,,-99.99,,2013-08-09 21:50:00,
2013-08-09 17:56:00,80.6,73.4,30.14,SSE,163,0.0,-999.9,79,-99.99,,,-99.99,,2013-08-09 21:56:00,
2013-08-09 18:02:00,80.6,73.4,30.15,SSE,147,0.0,-999.9,79,-99.99,,,-99.99,,2013-08-09 22:02:00,
2013-08-09 18:08:00,80.6,73.4,30.15,SSE,147,0.0,-999.9,79,-99.99,,,-99.99,,2013-08-09 22:08:00,
2013-08-09 18:14:00,80.6,73.4,30.15,SE,141,4.6,-999.9,79,-99.99,,,-99.99,,2013-08-09 22:14:00,
2013-08-09 18:20:00,80.6,73.4,30.15,SE,141,4.6,-999.9,79,-99.99,,,-99.99,,2013-08-09 22:20:00,
2013-08-09 18:26:00,80.6,73.4,30.15,SSE,151,0.0,-999.9,79,-99.99,,,-99.99,,2013-08-09 22:26:00,
2013-08-09 18:32:00,80.6,75.2,30.16,North,0,0.0,-999.9,84,-99.99,,,-99.99,,2013-08-09 22:32:00,
2013-08-09 18:38:00,80.6,75.2,30.16,North,0,0.0,-999.9,84,-99.99,,,-99.99,,2013-08-09 22:38:00,
2013-08-09 18:44:00,78.8,73.4,30.17,NNW,346,0.0,-999.9,83,-99.99,,,-99.99,,2013-08-09 22:44:00,
2013-08-09 18:50:00,78.8,73.4,30.17,NNW,346,0.0,-999.9,83,-99.99,,,-99.99,,2013-08-09 22:50:00,
2013-08-09 18:56:00,78.8,73.4,30.17,North,0,0.0,-999.9,83,-99.99,,,-99.99,,2013-08-09 22:56:00,
2013-08-09 19:02:00,78.8,75.2,30.17,NNW,338,2.3,-999.9,89,-99.99,,,-99.99,,2013-08-09 23:02:00,
2013-08-09 19:08:00,78.8,75.2,30.17,NNW,338,2.3,-999.9,89,-99.99,,,-99.99,,2013-08-09 23:08:00,
2013-08-09 19:14:00,77.0,71.6,30.17,NNE,15,3.5,-999.9,83,-99.99,,,-99.99,,2013-08-09 23:14:00,
2013-08-09 19:20:00,77.0,71.6,30.17,NNE,15,3.5,-999.9,83,-99.99,,,-99.99,,2013-08-09 23:20:00,
2013-08-09 19:26:00,77.0,71.6,30.17,North,0,0.0,-999.9,83,-99.99,,,-99.99,,2013-08-09 23:26:00,
2013-08-09 19:32:00,77.0,73.4,30.17,North,0,0.0,-999.9,89,-99.99,,,-99.99,,2013-08-09 23:32:00,
2013-08-09 19:38:00,77.0,73.4,30.17,North,0,0.0,-999.9,89,-99.99,,,-99.99,,2013-08-09 23:38:00,
2013-08-09 19:44:00,77.0,73.4,30.16,North,0,0.0,-999.9,89,-99.99,,,-99.99,,2013-08-09 23:44:00,
2013-08-09 19:50:00,77.0,73.4,30.16,North,0,0.0,-999.9,89,-99.99,,,-99.99,,2013-08-09 23:50:00,
2013-08-09 19:56:00,75.2,71.6,30.17,North,0,0.0,-999.9,89,-99.99,,,-99.99,,2013-08-09 23:56:00,
2013-08-09 20:02:00,77.0,73.4,30.17,North,0,0.0,-999.9,89,-99.99,,,-99.99,,2013-08-10 00:02:00,
2013-08-09 20:08:00,77.0,73.4,30.17,North,0,0.0,-999.9,89,-99.99,,,-99.99,,2013-08-10 00:08:00,
2013-08-09 21:02:00,75.2,73.4,30.17,NE,50,0.0,-999.9,94,-99.99,,,-99.99,,2013-08-10 01:02:00,
2013-08-09 21:08:00,75.2,73.4,30.17,NE,50,0.0,-999.9,94,-99.99,,,-99.99,,2013-08-10 01:08:00,
2013-08-09 21:14:00,75.2,73.4,30.17,North,0,0.0,-999.9,94,-99.99,,,-99.99,,2013-08-10 01:14:00,
2013-08-09 21:20:00,75.2,73.4,30.17,North,0,0.0,-999.9,94,-99.99,,,-99.99,,2013-08-10 01:20:00,
2013-08-09 21:26:00,75.2,73.4,30.18,North,0,0.0,-999.9,94,-99.99,,,-99.99,,2013-08-10 01:26:00,
2013-08-09 21:32:00,75.2,73.4,30.18,North,0,0.0,-999.9,94,-99.99,,,-99.99,,2013-08-10 01:32:00,
2013-08-09 21:38:00,75.2,73.4,30.18,North,0,0.0,-999.9,94,-99.99,,,-99.99,,2013-08-10 01:38:00,
2013-08-09 21:44:00,75.2,73.4,30.19,North,0,0.0,-999.9,94,-99.99,,,-99.99,,2013-08-10 01:44:00,
2013-08-09 21:50:00,75.2,73.4,30.19,North,0,0.0,-999.9,94,-99.99,,,-99.99,,2013-08-10 01:50:00,
2013-08-09 21:56:00,73.4,71.6,30.19,North,0,0.0,-999.9,94,-99.99,,,-99.99,,2013-08-10 01:56:00,
2013-08-09 22:02:00,73.4,71.6,30.19,North,0,0.0,-999.9,94,-99.99,,,-99.99,,2013-08-10 02:02:00,
2013-08-09 22:08:00,73.4,71.6,30.19,North,0,0.0,-999.9,94,-99.99,,,-99.99,,2013-08-10 02:08:00,
2013-08-09 22:14:00,73.4,71.6,30.20,North,0,0.0,-999.9,94,-99.99,,,-99.99,,2013-08-10 02:14:00,
2013-08-09 22:20:00,73.4,71.6,30.20,North,0,0.0,-999.9,94,-99.99,,,-99.99,,2013-08-10 02:20:00,
2013-08-09 22:26:00,73.4,71.6,30.20,North,0,0.0,-999.9,94,-99.99,,,-99.99,,2013-08-10 02:26:00,
2013-08-09 22:32:00,73.4,71.6,30.21,North,0,0.0,-999.9,94,-99.99,,,-99.99,,2013-08-10 02:32:00,
2013-08-09 22:38:00,73.4,71.6,30.21,North,0,0.0,-999.9,94,-99.99,,,-99.99,,2013-08-10 02:38:00,
2013-08-09 22:44:00,73.4,71.6,30.21,North,0,0.0,-999.9,94,-99.99,,,-99.99,,2013-08-10 02:44:00,
2013-08-09 22:50:00,73.4,71.6,30.21,North,0,0.0,-999.9,94,-99.99,,,-99.99,,2013-08-10 02:50:00,
2013-08-09 22:56:00,73.4,71.6,30.21,North,0,0.0,-999.9,94,-99.99,,,-99.99,,2013-08-10 02:56:00,
2013-08-09 23:02:00,73.4,71.6,30.21,North,0,0.0,-999.9,94,-99.99,,,-99.99,,2013-08-10 03:02:00,
2013-08-09 23:08:00,73.4,71.6,30.21,North,0,0.0,-999.9,94,-99.99,,,-99.99,,2013-08-10 03:08:00,
2013-08-09 23:14:00,73.4,71.6,30.21,North,0,0.0,-999.9,94,-99.99,,,-99.99,,2013-08-10 03:14:00,
2013-08-09 23:20:00,73.4,71.6,30.21,North,0,0.0,-999.9,94,-99.99,,,-99.99,,2013-08-10 03:20:00,
2013-08-09 23:26:00,73.4,71.6,30.21,North,0,0.0,-999.9,94,-99.99,,,-99.99,,2013-08-10 03:26:00,
2013-08-09 23:32:00,73.4,71.6,30.21,North,0,0.0,-999.9,94,-99.99,,,-99.99,,2013-08-10 03:32:00,
2013-08-09 23:38:00,73.4,71.6,30.21,North,0,0.0,-999.9,94,-99.99,,,-99.99,,2013-08-10 03:38:00,
2013-08-09 23:44:00,71.6,69.8,30.22,North,0,0.0,-999.9,94,-99.99,,,-99.99,,2013-08-10 03:44:00,
2013-08-09 23:50:00,71.6,69.8,30.22,North,0,0.0,-999.9,94,-99.99,,,-99.99,,2013-08-10 03:50:00,
2013-08-09 23:56:00,71.6,69.8,30.22,North,0,0.0,-999.9,94,-99.99,,,-99.99,,2013-08-10 03:56:00,